Miscellaneous Local Product
Issued by NWS North Platte, NE

Home | Current Version | Previous Version | Text Only | Print | Product List | Glossary On
Versions: 1 2 3 4 5 6 7 8 9 10 11 12 13 14 15 16 17 18 19 20 21 22 23 24 25 26 27 28 29 30 31 32 33 34 35 36 37 38 39 40 41 42 43 44 45 46 47 48 49 50
000
AXUS43 KLBF 170110
MISLBF


WESTERN AND NORTH CENTRAL NEBRASKA HOURLY WEATHER ROUNDUP
NATIONAL WEATHER SERVICE NORTH PLATTE NE
700 PM CST SAT DEC 16 2017

NOTE: "FAIR" INDICATES FEW OR NO CLOUDS BELOW 12,000 FEET WITH NO
SIGNIFICANT WEATHER AND/OR OBSTRUCTIONS TO VISIBILITY.

NOTE: STATIONS NOT REPORTING VARIABLES SUCH AS SKY/WEATHER OR
PRESSURE ARE PROVIDED BY RAWS AND APRS NETWORKS AND ARE NOT UNDER
NATIONAL WEATHER SERVICE QUALITY CONTROL.

...OBSERVATIONS IN AND NEAR THE EASTERN PANHANDLE OF NEBRASKA...

CITY           SKY/WX    TMP DP  RH WIND       PRES   REMARKS
PINE RIDGE     CLOUDY    33  27  78 N7        29.99R WCI  27
GORDON         FAIR      32  28  84 NE5       29.98R WCI  28
CHADRON        CLOUDY    33  25  72 NE7       30.00R WCI  27
ALLIANCE       CLOUDY    33  29  85 NE13      29.95R WCI  24
SIDNEY         CLOUDY    34  28  79 NE14      29.92R WCI  25
CRESCENT LAKE    N/A     33  29  84 NE12        N/A  WCI  24
$$

...OBSERVATIONS IN NORTHERN NEBRASKA AND FAR SOUTHERN SOUTH DAKOTA...

CITY           SKY/WX    TMP DP  RH WIND       PRES   REMARKS
WINNER         CLOUDY    39  33  79 N8        30.01R WCI  33
VALENTINE      CLOUDY    38  32  79 N7        29.99R WCI  33
THEDFORD       CLOUDY    37  33  83 NE7       29.97R WCI  32
AINSWORTH      CLOUDY    37  33  87 N8        29.98R WCI  31
O`NEILL        CLOUDY    39  35  85 NE8       29.98R WCI  34
ORD            CLOUDY    33  29  85 N7        29.95R WCI  27
BROKEN BOW     CLOUDY    39  32  76 N10       29.93R WCI  32
VALENTINE NWR    N/A     35  30  82 NE6         N/A  WCI  30
HALSEY           N/A     36  30  80 N6G13       N/A  WCI  31
BUTTE            N/A     38  33  84 NE6         N/A  WCI  33
EWING            N/A     35  32  88 CALM        N/A
$$

...OBSERVATIONS IN SOUTHWEST NEBRASKA AND FAR NORTHEAST COLORADO...

CITY           SKY/WX    TMP DP  RH WIND       PRES   REMARKS
WRAY           FAIR      34  28  80 N14       29.87R WCI  24
HOLYOKE        CLOUDY    36  30  80 NE10      29.90R WCI  28
IMPERIAL       CLOUDY    33  28  81 NE10      29.89R WCI  25
OGALLALA       CLOUDY    38  32  77 NE12G17   29.93R WCI  31
NORTH PLATTE   CLOUDY    36  32  85 NE7       29.93R WCI  30
MCCOOK         CLEAR     38  28  67 NE15      29.87R WCI  29
LEXINGTON      CLOUDY    34  28  77 N6        29.91R WCI  29
STAPLETON        N/A     36  32  86 NE8         N/A  WCI  30
GOTHENBURG       N/A     35  27  74 N3          N/A
CALLAWAY         N/A     37  33  84 NE12        N/A  WCI  29
$$

...OBSERVATIONS IN CENTRAL LINCOLN COUNTY AREA...

CITY           SKY/WX    TMP DP  RH WIND       PRES   REMARKS
N.P. AIRPORT   CLOUDY    36  32  85 NE7       29.93R WCI  30
N.P. DOWNTOWN    N/A     38  33  83 NE7         N/A  WCI  33
N.P. SOUTHEAST   N/A     37  31  79 MISG        N/A
N.P. HILLCREST   N/A     38  34  86 NE18        N/A  WCI  28
$$

...SOME OBSERVATIONS FROM AROUND THE REGION...

CITY           SKY/WX    TMP DP  RH WIND       PRES   REMARKS
DENVER         CLOUDY    33  18  53 NE10      29.85R WCI  25
GRAND JUNCTION CLOUDY    32   9  38 CALM      29.79R
LARAMIE        CLOUDY    28  19  69 E14       29.80S WCI  17
CHEYENNE       CLOUDY    31  24  75 NE10      29.87R WCI  22
CASPER         LGT SNOW  27  24  89 NE10      29.90S FOG     WCI  17
BISMARCK       CLOUDY    32  29  88 W6        30.02R WCI  26
RAPID CITY     CLOUDY    34  25  69 N9        30.02R WCI  27
PIERRE         CLOUDY    34  31  88 N6        30.02R WCI  29
SIOUX FALLS    PTCLDY    32  29  88 NE5       30.00R WCI  27
OMAHA          CLEAR     34  23  64 N6        29.95R WCI  29
GRAND ISLAND   CLEAR     33  29  85 NE8       29.94R WCI  26
SCOTTSBLUFF    CLOUDY    35  28  75 E13       29.96R WCI  26
KANSAS CITY    CLOUDY    44  27  51 S10       29.94R
HILL CITY      CLEAR     40  20  44 NE12      29.82R WCI  33
WICHITA        CLOUDY    53  27  36 S13       29.87R
DODGE CITY     CLOUDY    50  22  33 S14       29.76S
OKLAHOMA CITY  CLOUDY    51  29  42 S25G37    29.92S
DALLAS         LGT RAIN  46  44  93 SE8       30.02F
AMARILLO       PTCLDY    47  27  45 S21G30    29.76R
$$




USA.gov is the U.S. government's official web portal to all federal, state and local government web resources and services.